This is the latest recevied weather packets stored in our database for station/object PA3CPS. If no packets are shown the sender has not sent any weather packets the latest 10 day(s).
| Time | Temp. | Humidity | Pressure | Rain* | Wind** | Luminosity | Snow |
|---|---|---|---|---|---|---|---|
| 1777870602 | 12.22° C | 95% | 1011.6 hPa | 0 mm | - | 19 W/m² | - |
| 1777870297 | 12.22° C | 95% | 1011.6 hPa | 0 mm | - | 21 W/m² | - |
| 1777869996 | 12.22° C | 95% | 1011.6 hPa | 0 mm | - | 18 W/m² | - |
| 1777869696 | 11.67° C | 95% | 1011.5 hPa | 0 mm | - | 14 W/m² | - |
| 1777869393 | 11.67° C | 95% | 1011.6 hPa | 0 mm | - | 16 W/m² | - |
| 1777869095 | 11.67° C | 95% | 1011.5 hPa | 0 mm | - | 14 W/m² | - |
| 1777868793 | 11.67° C | 95% | 1011.5 hPa | 0 mm | - | 11 W/m² | - |
| 1777868493 | 11.67° C | 95% | 1011.4 hPa | 0 mm | - | 7 W/m² | - |
| 1777868189 | 11.67° C | 95% | 1011.6 hPa | 0 mm | - | 0 W/m² | - |
| 1777867887 | 11.67° C | 95% | 1011.4 hPa | 0 mm | - | 0 W/m² | - |
| 1777867599 | 11.67° C | 95% | 1011.4 hPa | 0 mm | - | 0 W/m² | - |
| 1777867285 | 11.67° C | 95% | 1011.5 hPa | 0 mm | - | 0 W/m² | - |
| 1777866985 | 11.11° C | 95% | 1011.5 hPa | 0 mm | - | 0 W/m² | - |
| 1777866683 | 11.11° C | 94% | 1011.4 hPa | 0 mm | - | 0 W/m² | - |
| 1777866381 | 11.11° C | 95% | 1011.5 hPa | 0 mm | - | 0 W/m² | - |
| 1777866081 | 11.11° C | 94% | 1011.5 hPa | 0 mm | - | 0 W/m² | - |
| 1777865772 | 11.11° C | 95% | 1011.5 hPa | 0 mm | - | 0 W/m² | - |
| 1777865470 | 11.11° C | 95% | 1011.5 hPa | 0 mm | - | 0 W/m² | - |
| 1777865168 | 11.11° C | 94% | 1011.5 hPa | 0 mm | - | 0 W/m² | - |
| 1777864865 | 11.11° C | 95% | 1011.4 hPa | 0 mm | - | 0 W/m² | - |
| 1777864565 | 11.11° C | 94% | 1011.4 hPa | 0 mm | - | 0 W/m² | - |
| 1777864265 | 11.67° C | 94% | 1011.3 hPa | 0 mm | - | 0 W/m² | - |
| 1777863965 | 11.67° C | 94% | 1011.2 hPa | 0 mm | - | 0 W/m² | - |
| 1777863668 | 11.67° C | 94% | 1011.3 hPa | 0 mm | - | 0 W/m² | - |
| 1777863364 | 11.67° C | 94% | 1011.3 hPa | 0 mm | - | 0 W/m² | - |
* Rain latest hour (hover to see other rain measurements)
** Current wind speed in m/s (hover to see current wind gust speed)